Content
SEND FEEDBACK

Daily
Averages
Monthly
Summary
Germany

LEIPHEIM, GERMANY


Home > Europe > Germany
Elevation: 1566 feet     Latitude: 48 26N     Longitude: 010 14E

WEATHER
 
SELECT A DAY
Number of Records: 51,559;   Date Range: 9/3/98 - 7/31/14
 
SHARE

PRINT THIS DATA

[ ← Previous Day ]
WEATHER ALMANAC - FEBRUARY 13, 2013
[ Next Day → ]
[ °C ]   °F
Weather ElementAverageHighLow
Temperature24.9 °F28.4 °F (2:20 pm)21.2 °F (10:20 pm)
Dewpoint16.8 °F21.2 °F (8:20 pm)10.4 °F (7:20 am)
Humidity72.3 %93 % (9:20 pm)54 % (7:20 am)
Barometer30.11 in30.21 in (7:20 pm)29.95 in (1:20 am)
Wind Speed3.7 mph6.9 mph (5:02 pm)
Weather ElementAverage
Visibility5.4 mi
Wind DirectionESE (99.2 °)

Weather ElementTotal
Precipitation---
Heating Degree Days40.2 (Base 65)
Averaged from 25 records on February 13, 2013
WEATHER CONDITIONS BREAKOUT
WIND DIRECTION BREAKOUT
WEATHER BY HOUR - FEBRUARY 13, 2013
[ °C ]   °F
Local TimeTemperatureDewpointHumidityBarometerVisibilityWind DirectionWind SpeedGust SpeedPrecipitationEventsConditions
1:20 AM24.8 °F17.6 °F74 %29.95 in6.2 miWest (260°)3.5 mphOvercast
2:20 AM24.8 °F17.6 °F74 %29.98 in6.2 miWNW (300°)3.5 mphOvercast
3:20 AM24.8 °F17.6 °F74 %29.98 in6.2 miNNW (340°)2.3 mphOvercast
4:20 AM24.8 °F17.6 °F74 %30.01 in6.2 miNorth (360°)2.3 mphOvercast
5:20 AM23.0 °F15.8 °F74 %30.01 in6.2 miNorth (10°)2.3 mphOvercast
6:20 AM23.0 °F15.8 °F74 %30.04 in6.2 miNNE (20°)3.5 mphOvercast
7:20 AM24.8 °F10.4 °F54 %30.04 in5.6 miVariable2.3 mphOvercast
8:20 AM23.0 °F15.8 °F74 %30.06 in5.0 miNorth (350°)3.5 mphOvercast
9:20 AM23.0 °F15.8 °F74 %30.09 in5.6 miNNE (30°)2.3 mphMostly Cloudy
10:20 AM24.8 °F14.0 °F64 %30.09 in5.6 miENE (60°)2.3 mphMostly Cloudy
11:20 AM26.6 °F14.0 °F59 %30.12 in6.2 miNE (50°)3.5 mphPartly Cloudy
12:20 PM26.6 °F14.0 °F59 %30.12 in6.2 miNNE (20°)3.5 mphPartly Cloudy
1:20 PM26.6 °F14.0 °F59 %30.12 in6.2 miNNE (30°)3.5 mphScattered Clouds
2:20 PM28.4 °F14.0 °F55 %30.12 in6.2 miNE (40°)3.5 mphScattered Clouds
3:20 PM26.6 °F14.0 °F59 %30.15 in6.2 miENE (60°)3.5 mphScattered Clouds
4:20 PM28.4 °F15.8 °F59 %30.15 in6.2 miENE (70°)5.8 mphMostly Cloudy
5:02 PM26.6 °F17.6 °F69 %30.18 in6.2 miNE (40°)6.9 mphMostly Cloudy
5:20 PM26.6 °F19.4 °F74 %30.18 in6.2 miNE (40°)6.9 mphMostly Cloudy
6:03 PM24.8 °F19.4 °F80 %30.18 in3.1 miNE (50°)4.6 mphMostly Cloudy
6:20 PM24.8 °F19.4 °F80 %30.18 inENE (60°)3.5 mphMostly Cloudy
7:20 PM24.8 °F19.4 °F80 %30.21 inNE (50°)3.5 mphMostly Cloudy
8:20 PM24.8 °F21.2 °F86 %30.21 in3.1 miENE (60°)4.6 mphMostly Cloudy
9:20 PM23.0 °F21.2 °F93 %30.21 in3.1 miNE (40°)4.6 mphMostly Cloudy
10:20 PM21.2 °F19.4 °F93 %30.21 in3.1 miENE (60°)3.5 mphScattered Clouds
11:20 PM21.2 °F19.4 °F93 %30.21 in2.2 miEast (80°)3.5 mphScattered Clouds
Hourly data recorded from ETHL, located miles away from Leipheim, Germany







STORIES FROM OUR PARTNERS